SCP
1 1 2 2 1 1 1 2 2 2 2 2 1 1 1 1 2 2 2 1 2 2 1 1 1 1 0 0 0 0 0 0 0 0 0 0 0 0 0 1 0 0 0
1 1 2 2 1 1 1 2 2 3 2 2 1 1 1 1 1 1 1 1 2 2 1 1 1 1 1 1 1 1 1 0 0 0 0 0 0 0 0 1 0 0 0
1 1 2 2 2 1 1 1 2 2 2 2 2 1 1 1 1 1 1 1 1 1 1 1 1 1 1 1 1 1 1 1 0 0 0 0 0 0 0 1 1 0 0
1 1 2 2 2 2 2 2 2 2 2 2 2 1 1 1 1 1 1 1 1 1 1 1 1 1 1 1 1 1 1 1 0 0 0 0 0 0 0 0 1 1 1
1 1 2 2 3 2 2 2 2 1 1 1 1 1 1 1 1 1 1 1 1 1 1 1 1 1 1 1 1 1 1 1 0 0 0 0 0 0 0 1 1 1 1
1 1 2 3 3 3 2 2 2 1 1 1 1 1 1 1 1 1 1 1 1 1 1 1 1 1 1 1 1 1 1 0 0 0 0 0 1 1 1 1 1 1 1
1 2 3 3 4 3 3 2 2 1 1 1 1 1 1 1 1 1 1 1 1 1 1 1 1 1 1 1 1 1 1 0 0 0 0 0 1 1 1 1 1 1 1
1 2 3 4 4 4 3 3 2 1 1 1 1 1 1 1 1 1 1 1 1 1 1 1 1 1 1 1 1 1 1 0 0 0 0 0 1 1 1 1 1 1 1
2 2 3 3 4 4 4 3 2 1 1 1 1 1 1 1 1 1 2 1 1 1 1 1 1 1 1 1 1 1 1 0 0 0 0 1 1 1 1 1 1 1 1
2 2 2 3 3 3 3 3 2 1 1 1 1 1 1 1 1 1 1 1 1 2 1 1 1 1 1 1 1 1 1 1 0 0 0 1 1 1 1 1 1 1 1
2 2 2 2 3 3 2 2 1 1 1 1 1 1 1 1 1 1 1 1 1 2 2 1 1 1 1 1 1 1 1 1 1 0 1 1 1 1 1 1 1 1 1
3 2 2 2 2 2 2 2 1 1 1 1 1 1 1 1 1 1 1 1 1 1 1 1 1 1 1 0 1 1 1 1 1 1 1 1 1 1 1 1 1 1 1
3 3 2 2 2 2 2 1 1 1 1 1 1 1 0 1 1 1 1 1 1 1 1 1 1 1 0 0 0 0 0 1 1 1 1 1 1 1 1 1 1 1 1
3 3 3 2 2 1 1 1 1 1 1 1 1 0 0 0 0 0 1 1 1 0 0 0 0 0 0 0 0 0 0 1 1 1 1 1 1 2 2 1 1 1 1
2 2 2 2 1 1 1 0 1 1 1 1 1 0 0 0 0 0 0 0 0 0 0 0 0 0 0 0 0 0 0 0 1 1 1 1 1 2 2 1 1 1 1
2 2 2 2 1 1 0 0 0 1 1 1 1 0 0 0 0 0 0 0 0 0 0 0 1 1 0 0 0 0 0 0 1 1 1 1 1 2 2 2 1 1 1
2 2 2 2 1 1 0 0 0 0 1 1 0 0 0 0 0 0 0 0 0 0 0 1 1 1 1 0 0 0 0 0 1 1 1 1 1 2 2 1 1 1 1
2 2 2 2 1 1 0 0 0 0 0 1 0 0 0 0 0 0 0 0 0 0 0 1 1 1 1 0 0 0 0 1 1 1 1 1 1 2 1 1 1 1 1
2 2 2 2 1 0 0 0 0 0 0 0 0 0 0 0 0 0 0 0 0 0 0 1 1 1 0 0 0 0 0 1 1 1 1 1 2 2 1 1 1 1 1
2 2 2 1 1 0 0 0 0 0 0 0 0 0 0 0 0 0 0 0 0 0 0 1 1 0 0 0 0 0 0 1 1 1 1 1 1 1 1 1 1 1 1
1 1 1 0 0 0 0 0 0 0 0 0 0 0 0 0 0 0 0 0 0 0 0 1 1 0 0 0 0 0 0 0 1 1 1 1 1 2 1 1 1 1 1
1 0 0 0 0 0 0 0 0 0 0 0 0 0 0 0 0 0 0 0 0 0 0 1 0 0 0 0 0 0 0 0 0 0 1 1 1 2 2 1 1 1 1
0 0 0 0 0 0 0 0 0 0 0 0 0 0 0 0 0 0 0 0 0 0 0 1 0 0 0 0 0 0 0 0 0 0 0 1 1 2 2 2 1 1 1
0 0 0 0 0 0 0 0 0 0 0 0 0 0 0 0 0 0 0 0 0 0 0 0 0 0 0 0 0 0 0 0 0 0 0 0 1 1 2 2 1 1 1
0 0 0 0 0 0 0 0 0 0 0 0 0 0 0 0 0 0 0 0 0 0 0 0 0 0 0 0 0 0 0 0 0 0 0 0 1 1 1 2 1 1 1
0 0 0 0 0 0 0 0 0 0 0 0 0 0 0 0 0 0 0 0 0 0 0 0 0 0 0 0 0 0 0 0 0 0 0 0 0 1 1 1 1 1 1
Wind_Speed
4 6 8 10 10 11 11 11 12 12 12 12 13 13 13 13 13 13 13 13 13 13 12 12 11 11 11 12 12 12 11 11 11 11 10 10 11 11 12 11 10 8 13
4 5 7 9 10 11 11 12 12 12 12 12 12 13 13 13 13 13 13 13 13 14 13 13 12 11 11 11 11 11 10 9 9 8 8 8 9 11 11 11 10 7 11
5 5 6 9 10 11 12 12 12 12 13 13 13 13 13 13 13 13 13 13 13 14 14 13 13 12 11 11 11 10 10 9 7 6 5 4 6 10 11 11 10 10 11
5 6 6 9 10 11 11 12 12 12 13 13 13 13 13 13 14 14 13 13 13 13 13 13 12 12 11 10 10 10 9 9 7 5 3 4 5 9 10 10 10 10 10
5 6 6 9 10 11 11 12 12 13 13 13 13 13 13 13 13 14 14 13 13 13 12 12 12 11 11 10 10 9 9 9 8 5 4 4 5 8 9 9 9 9 9
6 6 6 10 10 11 12 12 12 13 13 13 13 13 13 13 13 13 13 13 13 13 13 12 11 11 10 10 10 10 9 9 6 4 4 5 5 7 9 8 8 8 8
6 6 6 10 11 12 12 12 12 13 13 13 13 13 13 13 13 13 13 13 13 13 13 12 11 10 10 10 10 10 9 9 5 4 4 5 5 8 8 8 8 7 7
6 6 6 9 11 11 11 12 12 12 12 12 13 13 12 12 12 13 13 12 12 13 12 12 11 10 10 9 9 9 9 8 5 5 4 5 7 8 8 7 7 6 6
6 6 6 5 7 9 10 11 12 12 12 12 12 12 12 11 11 12 12 12 11 11 11 11 11 10 9 8 8 9 8 8 4 3 4 3 6 7 7 7 6 5 5
6 6 6 5 5 5 5 9 10 11 11 11 12 12 11 10 10 11 11 11 11 11 11 11 10 9 8 7 8 8 8 6 3 3 3 4 7 7 6 6 5 5 4
6 6 5 6 5 5 4 6 7 8 9 9 9 11 9 5 5 6 9 10 10 10 10 10 10 9 8 7 7 7 5 2 3 2 2 5 6 6 6 5 4 4 3
5 5 5 5 5 5 4 3 2 3 4 5 5 6 4 4 5 6 8 9 10 9 9 9 10 8 6 3 4 5 2 3 2 2 3 5 5 5 5 4 4 3 3
4 4 4 4 4 4 3 3 2 2 2 3 5 5 4 4 4 4 3 4 5 6 4 6 5 4 4 4 3 2 3 2 2 2 2 4 4 3 3 4 3 3 2
4 4 4 4 4 4 4 3 3 2 2 3 4 5 4 3 3 4 3 3 3 3 4 4 3 4 5 5 4 4 3 2 2 1 1 3 3 3 2 3 3 3 2
4 4 4 4 4 4 4 3 4 3 3 3 3 4 5 3 3 4 3 3 3 3 4 4 4 4 4 4 4 4 4 3 2 2 1 2 2 2 2 2 3 2 2
3 3 3 3 4 4 3 3 3 3 3 3 3 4 5 4 4 3 4 3 3 3 4 3 4 4 3 3 4 4 4 3 2 1 1 1 2 2 2 2 3 3 2
3 3 3 3 3 4 4 4 3 3 3 3 3 4 5 4 4 4 3 3 3 4 4 3 3 3 3 3 4 5 3 3 3 2 1 1 1 1 2 3 3 3 3
3 3 3 3 3 3 3 3 3 3 3 3 3 3 5 5 4 4 3 3 4 3 3 3 3 3 3 3 3 4 4 3 3 2 1 1 1 1 1 3 4 4 4
3 3 3 3 3 3 3 2 2 2 3 3 3 3 4 4 5 4 3 3 4 3 3 4 3 3 3 3 3 4 4 3 3 3 2 1 1 1 0 1 3 4 4
3 3 3 3 3 3 2 2 2 3 3 3 3 3 4 4 5 4 3 4 4 3 3 3 3 3 3 3 4 4 4 4 3 2 3 2 1 1 0 0 0 2 3
3 3 3 2 2 2 2 2 2 3 3 3 3 4 4 4 5 4 3 4 4 3 4 4 3 3 3 3 3 4 4 3 2 2 1 1 1 1 0 1 0 1 1
3 2 2 2 2 2 2 1 1 1 1 2 2 3 4 5 5 4 4 4 4 3 4 4 4 3 3 3 2 3 3 3 2 2 2 1 1 1 1 1 1 1 1
3 2 2 2 2 2 2 1 2 2 2 2 3 3 4 4 4 4 4 3 4 3 3 4 3 3 3 3 2 1 2 2 4 3 2 2 2 2 2 1 2 1 1
3 2 2 2 2 2 2 2 2 2 2 2 2 2 3 3 4 4 4 3 3 3 3 4 4 3 3 3 3 2 2 2 2 3 3 2 3 3 3 3 2 2 2
3 3 2 2 2 2 2 2 1 2 2 2 2 3 3 3 3 4 4 3 3 3 4 4 4 3 2 3 3 3 3 3 3 4 5 4 3 3 3 3 2 2 2
3 2 2 2 1 1 1 1 1 2 2 3 3 3 3 2 3 4 4 3 3 3 3 4 4 4 3 3 3 3 2 3 3 3 4 5 5 3 4 3 3 3 2
Wind_Direction
18 20 19 22 30 35 37 40 40 40 41 43 43 43 41 39 39 40 42 42 43 44 46 48 50 54 54 53 53 53 53 54 57 60 59 60 68 70 69 67 65 77 83
18 23 28 31 36 39 41 43 44 42 41 41 42 42 41 40 40 41 40 41 43 43 45 47 48 50 53 54 54 51 48 46 50 52 54 60 68 70 71 67 66 78 83
28 32 38 38 41 43 46 47 46 45 43 41 41 42 41 42 42 42 41 41 43 42 43 44 46 49 51 51 52 48 41 35 31 36 46 62 74 73 73 71 73 78 83
35 35 39 44 45 46 49 49 49 48 46 44 43 43 43 43 42 42 41 42 43 43 43 43 44 46 48 47 48 45 36 25 19 22 35 57 68 75 75 74 76 78 81
46 43 44 49 49 50 50 50 50 49 47 45 44 44 44 44 43 42 42 41 41 41 42 44 44 43 43 41 40 36 30 19 20 14 34 52 59 72 76 75 75 77 77
48 49 49 53 53 52 51 50 50 51 48 46 45 44 44 44 44 42 41 39 39 38 40 41 41 42 39 37 34 29 21 13 16 13 34 53 59 70 75 75 74 76 75
46 46 52 53 54 52 50 50 48 48 46 45 44 43 42 42 42 41 40 38 36 34 35 35 36 37 35 32 27 22 16 10 18 28 35 47 56 70 73 72 72 74 74
52 48 51 50 52 51 49 48 47 46 44 44 43 42 40 40 41 40 37 36 35 32 31 30 31 32 31 27 22 15 11 6 9 35 46 51 53 60 67 68 65 71 72
54 51 45 40 48 49 48 47 45 44 43 42 41 38 36 37 39 39 34 33 33 32 28 25 25 27 26 21 17 10 2 355 359 22 44 55 54 56 60 62 62 68 72
53 49 39 34 33 40 47 46 45 42 40 39 37 33 31 32 33 34 30 27 29 28 26 22 20 21 19 11 5 357 353 347 354 25 39 56 57 53 52 54 56 57 67
48 42 34 29 26 23 36 47 42 41 37 36 33 27 26 20 20 27 24 22 23 22 21 18 15 14 9 1 354 351 355 359 354 30 44 58 58 52 49 44 46 52 59
48 37 32 25 20 15 24 36 31 39 35 34 30 21 18 15 12 22 16 15 15 14 12 11 9 8 360 346 345 351 358 353 354 29 49 57 56 48 44 37 34 44 50
65 48 39 27 20 16 13 17 24 26 34 36 28 20 16 17 9 13 9 8 4 7 3 360 357 353 353 352 351 355 345 346 3 21 54 52 47 37 31 26 21 21 34
70 50 40 31 26 20 15 9 19 22 26 34 28 25 18 11 8 1 7 2 0 356 353 351 344 349 350 351 350 344 340 347 358 19 54 45 29 20 10 10 8 5 5
77 60 43 35 31 23 18 10 19 19 23 26 29 26 22 15 7 0 355 359 356 355 351 347 347 348 349 347 341 339 337 337 337 4 22 31 18 6 347 342 344 337 328
87 75 55 44 34 26 25 20 17 15 19 30 29 24 24 18 6 359 355 351 356 354 346 344 343 343 339 340 329 327 331 326 325 346 347 348 348 335 321 308 316 313 308
94 82 65 62 43 32 27 19 21 12 19 34 27 22 25 19 7 357 353 346 351 348 344 342 341 337 337 337 328 323 325 323 314 316 319 320 309 317 311 305 300 306 299
98 85 61 54 49 38 35 20 15 19 17 27 27 23 23 14 7 357 349 347 345 347 343 340 346 342 337 335 327 320 315 310 295 288 293 296 285 291 316 328 318 311 296
100 96 80 59 56 42 36 25 17 26 21 19 25 27 16 9 6 2 349 346 345 345 343 339 347 338 332 332 322 315 307 301 298 296 278 265 252 252 235 317 325 330 322
107 102 91 65 54 53 43 26 14 28 21 17 23 25 18 10 8 3 355 351 345 340 337 336 333 333 326 325 320 315 298 281 274 271 265 266 265 250 255 330 284 313 324
118 105 95 74 53 50 40 24 14 11 8 13 18 21 19 12 10 10 1 350 347 341 336 337 334 331 334 340 333 319 298 274 266 268 268 270 293 309 3 313 274 271 288
129 114 93 81 71 60 40 23 14 10 1 5 6 15 17 12 8 7 9 356 351 345 342 340 341 330 327 348 332 321 315 319 333 317 321 294 282 308 294 287 276 274 260
128 121 99 76 77 66 35 34 31 18 356 4 4 7 8 6 6 4 4 359 351 349 334 332 333 335 321 320 319 303 302 301 324 301 298 314 325 310 292 287 275 278 280
140 124 105 81 74 66 52 47 37 21 2 344 341 341 350 359 1 3 357 354 349 345 338 330 341 333 320 308 308 294 286 290 288 307 306 317 316 313 300 300 295 290 294
127 123 121 102 81 72 67 60 28 11 353 348 348 344 349 353 358 358 353 349 344 341 341 333 328 327 319 307 303 302 302 302 277 270 286 294 299 296 303 299 284 271 284
122 121 126 116 83 76 75 56 26 5 353 349 348 341 343 345 345 352 349 349 342 340 334 326 317 310 306 298 294 289 287 284 286 286 285 294 292 288 295 296 289 273 267